DW7027 Weather Reports


Display with metric or nautical units.
time (UTC)temp
F
wind
direction
speed
MPH
gust
MPH
rain 1hr
in
rain 24hr
in
rain mn
in
humidity
%
barometer
mb
20260831020705 60 290 2.0 3.0 0.00 0.00 0.00 84 1018.6
20260831020204 60 266 1.0 2.0 0.00 0.00 0.00 84 1018.6
20260831015704 60 338 1.0 2.0 0.00 0.00 0.00 84 1018.6
20260831015204 60 313 2.0 3.0 0.00 0.00 0.00 84 1018.6
20260831014704 60 4 1.0 2.0 0.00 0.00 0.00 84 1018.8
20260831014204 60 354 1.0 2.0 0.00 0.00 0.00 83 1018.8
20260831013705 60 275 1.0 3.0 0.00 0.00 0.00 83 1018.8
20260831013204 60 315 1.0 3.0 0.00 0.00 0.00 83 1018.8
20260831012204 60 355 2.0 2.0 0.00 0.00 0.00 83 1018.8
20260831010704 61 270 0.0 2.0 0.00 0.00 0.00 82 1018.9
20260831010204 61 288 1.0 2.0 0.00 0.00 0.00 82 1018.9
20260831005704 61 298 1.0 3.0 0.00 0.00 0.00 82 1018.9
20260831005204 61 300 1.0 2.0 0.00 0.00 0.00 82 1019.0
20260831004704 61 339 1.0 2.0 0.00 0.00 0.00 82 1018.8
20260831004206 61 329 1.0 2.0 0.00 0.00 0.00 82 1019.1
20260831003704 61 355 2.0 3.0 0.00 0.00 0.00 81 1019.2
20260831002704 62 303 1.0 3.0 0.00 0.00 0.00 80 1019.2
20260831002205 62 301 2.0 3.0 0.00 0.00 0.00 79 1019.2
20260831001704 62 253 1.0 2.0 0.00 0.00 0.00 79 1019.2
20260831001204 62 284 1.0 3.0 0.00 0.00 0.00 80 1019.2
20260831000704 62 286 2.0 3.0 0.00 0.00 0.00 80 1019.1
20260830235706 63 267 1.0 3.0 0.00 0.00 0.00 80 1019.3
20260830235204 63 264 1.0 2.0 0.00 0.00 0.00 80 1019.3
20260830234704 63 272 1.0 2.0 0.00 0.00 0.00 79 1019.2
20260830234204 63 336 1.0 2.0 0.00 0.00 0.00 79 1019.1
20260830233704 63 338 1.0 2.0 0.00 0.00 0.00 78 1019.3
20260830233204 63 353 1.0 2.0 0.00 0.00 0.00 78 1019.2
20260830232704 63 316 0.0 2.0 0.00 0.00 0.00 77 1019.2
20260830232204 63 344 1.0 2.0 0.00 0.00 0.00 76 1019.4
20260830231705 64 319 1.0 3.0 0.00 0.00 0.00 77 1019.5
20260830231204 64 286 2.0 3.0 0.00 0.00 0.00 77 1019.6
20260830230704 64 275 2.0 2.0 0.00 0.00 0.00 76 1019.4
20260830230204 64 285 1.0 2.0 0.00 0.00 0.00 77 1019.5
20260830225204 64 259 1.0 2.0 0.00 0.00 0.00 76 1019.7
20260830223704 65 343 1.0 2.0 0.00 0.00 0.00 73 1019.6
20260830223204 65 302 1.0 2.0 0.00 0.00 0.00 73 1019.7
20260830222704 65 290 1.0 2.0 0.00 0.00 0.00 73 1019.4
20260830222206 65 290 0.0 1.0 0.00 0.00 0.00 73 1019.4
20260830221704 65 265 1.0 3.0 0.00 0.00 0.00 73 1019.5
20260830220704 65 137 1.0 3.0 0.00 0.00 0.00 73 1019.4
20260830220204 66 220 1.0 3.0 0.00 0.00 0.00 72 1019.4
20260830215704 66 258 1.0 2.0 0.00 0.00 0.00 72 1019.5
20260830215206 66 265 2.0 2.0 0.00 0.00 0.00 72 1019.4
20260830214704 66 305 0.0 2.0 0.00 0.00 0.00 72 1019.5
20260830214204 67 287 1.0 2.0 0.00 0.00 0.00 72 1019.4
20260830213705 67 318 1.0 2.0 0.00 0.00 0.00 72 1019.4
20260830212704 67 126 0.0 2.0 0.00 0.00 0.00 71 1019.5
20260830212204 67 149 0.0 1.0 0.00 0.00 0.00 70 1019.4
20260830210704 68 323 1.0 2.0 0.00 0.00 0.00 69 1019.1
20260830210204 68 336 1.0 2.0 0.00 0.00 0.00 69 1019.2
20260830205203 69 306 0.0 1.0 0.00 0.00 0.00 68 1019.2
20260830204204 69 337 0.0 1.0 0.00 0.00 0.00 66 1019.6
20260830203704 69 255 1.0 2.0 0.00 0.00 0.00 66 1019.5
20260830203204 69 231 0.0 2.0 0.00 0.00 0.00 66 1019.4
20260830202705 69 219 0.0 1.0 0.00 0.00 0.00 65 1019.4
20260830201704 70 301 1.0 2.0 0.00 0.00 0.00 64 1019.6
20260830201204 70 219 0.0 1.0 0.00 0.00 0.00 64 1019.3
20260830200704 70 240 0.0 2.0 0.00 0.00 0.00 63 1019.5
20260830195704 70 208 2.0 2.0 0.00 0.00 0.00 63 1019.5
20260830195204 70 260 0.0 2.0 0.00 0.00 0.00 63 1019.6
20260830194704 70 310 3.0 6.0 0.00 0.00 0.00 63 1019.4
20260830194204 70 305 3.0 7.0 0.00 0.00 0.00 64 1019.5
20260830193704 70 334 7.0 12.0 0.00 0.00 0.00 64 1019.5
20260830193204 70 326 2.0 3.0 0.00 0.00 0.00 64 1019.4
20260830192704 70 348 2.0 3.0 0.00 0.00 0.00 63 1019.3
20260830192203 71 313 2.0 2.0 0.00 0.00 0.00 62 1019.2
20260830190706 72 224 0.0 1.0 0.00 0.00 0.00 60 1019.0
20260830190206 72 325 0.0 1.0 0.00 0.00 0.00 59 1018.9
20260830185706 72 333 0.0 1.0 0.00 0.00 0.00 58 1019.1
20260830185206 73 224 0.0 0.0 0.00 0.00 0.00 58 1019.2
20260830184706 73 265 0.0 1.0 0.00 0.00 0.00 57 1019.1
20260830184205 73 242 0.0 1.0 0.00 0.00 0.00 57 1019.1
20260830183706 74 269 0.0 1.0 0.00 0.00 0.00 56 1019.0
20260830183206 74 255 0.0 1.0 0.00 0.00 0.00 55 1018.8
20260830182705 75 267 0.0 1.0 0.00 0.00 0.00 54 1018.8
20260830182207 75 257 0.0 1.0 0.00 0.00 0.00 54 1018.9
20260830181706 76 271 1.0 1.0 0.00 0.00 0.00 54 1019.0
20260830181206 76 271 0.0 1.0 0.00 0.00 0.00 53 1018.8
20260830180705 77 315 0.0 1.0 0.00 0.00 0.00 51 1018.6
20260830180206 78 28 0.0 1.0 0.00 0.00 0.00 49 1018.7
20260830175206 79 269 1.0 2.0 0.00 0.00 0.00 48 1018.5
20260830174706 79 263 1.0 2.0 0.00 0.00 0.00 47 1018.7
20260830174206 80 256 1.0 2.0 0.00 0.00 0.00 46 1018.6
20260830173206 81 270 2.0 3.0 0.00 0.00 0.00 45 1018.5
20260830172705 82 251 3.0 5.0 0.00 0.00 0.00 44 1018.6
20260830172205 82 248 3.0 5.0 0.00 0.00 0.00 43 1018.5
20260830171706 83 263 2.0 5.0 0.00 0.00 0.00 43 1018.3
20260830171206 83 251 2.0 5.0 0.00 0.00 0.00 42 1018.4
20260830170206 84 244 2.0 5.0 0.00 0.00 0.00 41 1018.3
20260830165705 84 247 3.0 8.0 0.00 0.00 0.00 41 1018.3
20260830164706 85 252 5.0 9.0 0.00 0.00 0.00 40 1018.5
20260830164206 85 249 5.0 6.0 0.00 0.00 0.00 40 1018.4
20260830163705 86 252 5.0 9.0 0.00 0.00 0.00 39 1018.5
20260830163206 86 254 5.0 7.0 0.00 0.00 0.00 40 1018.4
20260830162705 86 265 3.0 9.0 0.00 0.00 0.00 40 1018.3
20260830162206 86 264 6.0 10.0 0.00 0.00 0.00 39 1018.3
20260830160705 86 253 5.0 9.0 0.00 0.00 0.00 39 1018.4
20260830160205 87 235 4.0 8.0 0.00 0.00 0.00 38 1018.3
20260830155705 87 279 6.0 9.0 0.00 0.00 0.00 39 1018.3
20260830154706 87 272 7.0 13.0 0.00 0.00 0.00 38 1018.3
20260830154207 88 242 5.0 10.0 0.00 0.00 0.00 37 1018.3
20260830153206 88 238 5.0 10.0 0.00 0.00 0.00 37 1018.5
20260830152706 89 240 6.0 13.0 0.00 0.00 0.00 36 1018.2
20260830152208 89 257 6.0 12.0 0.00 0.00 0.00 36 1018.5
20260830151206 89 282 6.0 10.0 0.00 0.00 0.00 37 1018.3
20260830150706 89 278 7.0 12.0 0.00 0.00 0.00 37 1018.5
20260830150205 88 260 5.0 9.0 0.00 0.00 0.00 36 1018.4
20260830145706 88 260 5.0 8.0 0.00 0.00 0.00 36 1018.5
20260830145205 89 145 2.0 12.0 0.00 0.00 0.00 36 1018.6
20260830144706 89 198 5.0 9.0 0.00 0.00 0.00 37 1018.5
20260830143707 89 225 7.0 15.0 0.00 0.00 0.00 38 1018.5
20260830143205 89 272 6.0 13.0 0.00 0.00 0.00 37 1018.6
20260830142206 88 246 9.0 15.0 0.00 0.00 0.00 37 1018.8
20260830141706 88 228 5.0 16.0 0.00 0.00 0.00 37 1018.8
20260830135205 88 280 5.0 12.0 0.00 0.00 0.00 39 1018.9
20260830134706 88 254 7.0 12.0 0.00 0.00 0.00 38 1019.0
20260830133706 88 245 8.0 17.0 0.00 0.00 0.00 38 1019.1
20260830133205 87 185 6.0 9.0 0.00 0.00 0.00 38 1019.0
20260830132705 87 220 6.0 13.0 0.00 0.00 0.00 39 1019.2
20260830132205 88 247 7.0 10.0 0.00 0.00 0.00 38 1019.1
20260830130706 88 222 8.0 14.0 0.00 0.00 0.00 37 1019.3
20260830130206 88 231 5.0 9.0 0.00 0.00 0.00 39 1019.4
20260830124206 88 235 6.0 13.0 0.00 0.00 0.00 37 1019.5
20260830123705 88 236 8.0 15.0 0.00 0.00 0.00 37 1019.7
20260830123205 87 265 6.0 13.0 0.00 0.00 0.00 39 1019.6
20260830122706 87 275 10.0 14.0 0.00 0.00 0.00 38 1019.6
20260830122205 87 269 6.0 14.0 0.00 0.00 0.00 39 1019.8
20260830121706 87 191 10.0 14.0 0.00 0.00 0.00 38 1019.8
20260830121205 86 183 5.0 12.0 0.00 0.00 0.00 39 1019.8
20260830120207 86 221 6.0 13.0 0.00 0.00 0.00 39 1019.9
20260830115205 85 229 5.0 9.0 0.00 0.00 0.00 41 1020.0
20260830114705 85 242 6.0 10.0 0.00 0.00 0.00 41 1020.1
20260830114206 85 255 4.0 13.0 0.00 0.00 0.00 41 1020.2
20260830113706 86 238 9.0 15.0 0.00 0.00 0.00 39 1020.2
20260830112705 85 279 5.0 8.0 0.00 0.00 0.00 42 1020.2
20260830112207 85 275 6.0 10.0 0.00 0.00 0.00 43 1020.2
20260830111706 84 229 2.0 8.0 0.00 0.00 0.00 43 1020.2
20260830110206 83 241 6.0 10.0 0.00 0.00 0.00 43 1020.6
20260830105205 82 266 5.0 9.0 0.00 0.00 0.00 45 1020.7
20260830104205 82 280 5.0 10.0 0.00 0.00 0.00 45 1020.9
20260830103205 82 239 7.0 20.0 0.00 0.00 0.00 44 1021.0
20260830102705 82 243 5.0 8.0 0.00 0.00 0.00 44 1020.9
20260830102206 82 232 4.0 8.0 0.00 0.00 0.00 45 1020.9
20260830101707 82 220 3.0 8.0 0.00 0.00 0.00 44 1021.1
20260830101205 83 182 6.0 10.0 0.00 0.00 0.00 43 1021.0
20260830100707 83 210 6.0 13.0 0.00 0.00 0.00 44 1021.1
20260830100206 83 210 6.0 12.0 0.00 0.00 0.00 48 1021.3
20260830095705 82 245 3.0 10.0 0.00 0.00 0.00 48 1021.3
20260830095205 82 260 5.0 9.0 0.00 0.00 0.00 47 1021.3
20260830094205 81 196 4.0 10.0 0.00 0.00 0.00 49 1021.3
20260830093707 81 181 3.0 8.0 0.00 0.00 0.00 50 1021.5
20260830093205 80 188 5.0 9.0 0.00 0.00 0.00 50 1021.7
20260830092705 80 185 5.0 9.0 0.00 0.00 0.00 50 1021.5
20260830092205 80 253 4.0 9.0 0.00 0.00 0.00 51 1021.6
20260830090705 79 218 5.0 9.0 0.00 0.00 0.00 52 1021.7
20260830090206 79 204 6.0 10.0 0.00 0.00 0.00 52 1021.8
20260830085705 79 190 6.0 9.0 0.00 0.00 0.00 53 1021.5
20260830085205 78 241 4.0 7.0 0.00 0.00 0.00 54 1021.7
20260830084707 78 257 5.0 9.0 0.00 0.00 0.00 54 1021.6
20260830083705 77 202 4.0 7.0 0.00 0.00 0.00 56 1021.8
20260830082705 77 233 5.0 8.0 0.00 0.00 0.00 57 1021.8
20260830082205 76 255 3.0 10.0 0.00 0.00 0.00 58 1022.0
20260830081707 76 212 6.0 10.0 0.00 0.00 0.00 58 1021.9
20260830081205 75 213 3.0 8.0 0.00 0.00 0.00 59 1021.9
20260830080207 75 205 4.0 7.0 0.00 0.00 0.00 64 1021.8
20260830075705 74 230 3.0 6.0 0.00 0.00 0.00 65 1022.0
20260830075206 74 111 0.0 2.0 0.00 0.00 0.00 66 1021.8
20260830074705 73 136 2.0 5.0 0.00 0.00 0.00 66 1021.9
20260830074205 73 257 3.0 5.0 0.00 0.00 0.00 70 1021.8
20260830073705 72 229 2.0 3.0 0.00 0.00 0.00 70 1022.0
20260830073206 72 212 1.0 3.0 0.00 0.00 0.00 71 1021.9
20260830072705 71 169 2.0 5.0 0.00 0.00 0.00 71 1022.0
20260830072205 71 221 1.0 2.0 0.00 0.00 0.00 73 1022.0
20260830070705 69 85 2.0 2.0 0.00 0.00 0.00 79 1021.8
20260830070205 68 352 0.0 2.0 0.00 0.00 0.00 80 1021.8
20260830065705 68 324 1.0 2.0 0.00 0.00 0.00 81 1021.6
20260830064205 66 10 1.0 3.0 0.00 0.00 0.00 85 1021.9
20260830063705 65 270 1.0 2.0 0.00 0.00 0.00 87 1021.8
20260830063205 64 132 1.0 2.0 0.00 0.00 0.00 88 1021.8
20260830062707 63 242 1.0 2.0 0.00 0.00 0.00 90 1021.8
20260830062205 62 206 1.0 2.0 0.00 0.00 0.00 90 1021.9
20260830061205 61 312 2.0 3.0 0.00 0.00 0.00 91 1021.7
20260830060705 60 150 0.0 1.0 0.00 0.00 0.00 92 1021.5
20260830060206 60 267 0.0 2.0 0.00 0.00 0.00 92 1021.6
20260830055706 59 296 0.0 1.0 0.00 0.00 0.00 93 1021.5
20260830055205 58 211 1.0 2.0 0.00 0.00 0.00 93 1021.9
20260830054705 57 186 1.0 2.0 0.00 0.00 0.00 93 1021.7
20260830054207 56 124 0.0 2.0 0.00 0.00 0.00 92 1021.8
20260830053705 56 286 1.0 2.0 0.00 0.00 0.00 92 1021.7
20260830053207 56 274 0.0 1.0 0.00 0.00 0.00 92 1021.6
20260830052705 55 257 1.0 1.0 0.00 0.00 0.00 92 1021.4
20260830052205 55 0 1.0 2.0 0.00 0.00 0.00 91 1021.5
20260830051707 55 30 1.0 2.0 0.00 0.00 0.00 91 1021.4
20260830051205 55 0 1.0 3.0 0.00 0.00 0.00 91 1021.5
20260830050205 55 303 1.0 3.0 0.00 0.00 0.00 91 1021.5
20260830044705 54 280 2.0 3.0 0.00 0.00 0.00 91 1021.5
20260830044205 54 236 1.0 3.0 0.00 0.00 0.00 91 1021.4
20260830043707 54 320 2.0 3.0 0.00 0.00 0.00 91 1021.5
20260830043205 54 319 1.0 3.0 0.00 0.00 0.00 90 1021.4
20260830042706 54 317 0.0 2.0 0.00 0.00 0.00 90 1021.3
20260830042206 54 219 1.0 2.0 0.00 0.00 0.00 90 1021.3
20260830040705 54 292 1.0 2.0 0.00 0.00 0.00 90 1021.4
20260830035705 55 260 1.0 3.0 0.00 0.00 0.00 90 1021.3
20260830035205 55 205 1.0 1.0 0.00 0.00 0.00 90 1021.3
20260830034705 55 261 1.0 2.0 0.00 0.00 0.00 90 1021.2
20260830034206 55 61 1.0 2.0 0.00 0.00 0.00 90 1021.2
20260830033205 55 198 1.0 2.0 0.00 0.00 0.00 89 1021.2
20260830031205 55 269 2.0 2.0 0.00 0.00 0.00 89 1021.0
20260830030704 55 284 1.0 2.0 0.00 0.00 0.00 89 1020.8
20260830025705 56 278 2.0 2.0 0.00 0.00 0.00 89 1021.1
20260830025205 56 232 1.0 2.0 0.00 0.00 0.00 89 1021.0
20260830024705 56 173 1.0 3.0 0.00 0.00 0.00 89 1021.0
20260830024205 56 107 1.0 2.0 0.00 0.00 0.00 89 1021.0
20260830023705 56 181 2.0 2.0 0.00 0.00 0.00 88 1020.9
20260830023205 56 251 1.0 2.0 0.00 0.00 0.00 88 1020.7
20260830022207 56 199 2.0 3.0 0.00 0.00 0.00 88 1021.0
20260830021705 57 255 1.0 2.0 0.00 0.01 0.00 88 1020.8
20260830021205 57 273 1.0 2.0 0.00 0.01 0.00 88 1021.0